NOAA 16 DEB

Satellite information

Favourite Embed

Satellite Type and Status

DEBRISIN ORBIT

Key statistics

Satellite NOAA 16 DEB at a glance.

Uptime

9055

Days in orbit

Revolutions

≈ 14.3

Per day

Orbit

SSO

Sun Synchronous Orbit

Inclination

98.6

Latest

Satellite identification and parameters

Extended collection of information and parameters for NOAA 16 DEB.

Object identification

Identified? True

Debris? True

Object name: NOAA 16 DEB

International designator: 2000-055SG

Object number (NORAD): 42388

Object ID (CCSDS): 42388

Country: UNITED STATES OF AMERICA (US)

Current information (Y/N): Y

RCS size: SMALL

Orbital parameters

Period: 100.837 minutes

Inclination: 98.6143 deg

SMA: 7176.402 km

Apoapsis: 808.714 km

Periapsis: 787.821 km

RAAN: 224.6704 deg

Eccentricy: 0.0014557

Argument of periapsis: 226.2123 deg

Mean anomaly: 133.7854 deg

Mean motion: 14.28047317 rev/day

Mean motion (dot): 0.00002918 rev/day2

B* drag term: 0.001191 1/REarth

Two-line elements (TLE)

Creation date: July 5, 2025, 6:56 a.m.

Reference frame: TEME

Reference center: EARTH

Epoch: July 4, 2025, 10:14 p.m. UTC

TLE line 0: 0 NOAA 16 DEB

TLE line 1: 1 42388U 00055SG 25185.92665506 .00002918 00000-0 11910-2 0 9999

TLE line 2: 2 42388 98.6143 224.6704 0014557 226.2123 133.7854 14.28047317484568

Live tracking on map

Real-time ground track for satellite NOAA 16 DEB.

In-orbit conjunctions

A list of the most updated potential collisions computed for object NOAA 16 DEB.

Target Orbit TCA Probability of collision Miss distance Type
CZ-6A DEB LEO 2025-04-17 15:40:52 0.0001418188 57.0 (m) DEBRIS
SL-6 R/B SSO 2025-01-12 04:57:40 0.0001015815 443.0 (m) ROCKET BODY

Associated space launch

The NOAA K, L and M POES satellites begin the fifth generation of improved environmental monitoring in support of NOAA missions. The instrument payload has significant improvements and additions/deletions. The instrument changes have effected the spacecraft subsystems and data formats.

NOAA 16 DEB was lifted into orbit during the mission ‘Titan II SLV | NOAA 16’, on board a Titan II SLV space rocket.

The launch took place on Sept. 21, 2000, 10:22 a.m. from Space Launch Complex 4W.

For more information about the launch, click the button.

Launch to space Titan II SLV | NOAA 16
Titan II SLV | NOAA 16

Agency: N/A

Status: Launch Successful

Launch date: Sept. 21, 2000, 10:22 a.m. UTC

Rocket: Titan II SLV

Launch pad: Space Launch Complex 4W

Location: Vandenberg SFB, CA, USA

...

Latest news about this satellite

There are no fresh news available about this satellite. Check back as we update our databases every day.


Newsletter sign-up

Weekly statistics, charts and insights to help you stay on top of the space industry.